Tracking 20724 objects as of 3-Jun-2020
HD Live streaming from Space Station
objects crossing your sky now

STARLINK-1379

Track STARLINK-1379 now!
10-day predictions
STARLINK-1379 is classified as:


NORAD ID: 45549
Int'l Code: 2020-025U
Perigee: 511.8 km
Apogee: 515.7 km
Inclination: 53.0 °
Period: 94.8 minutes
Semi major axis: 6884 km
RCS: Unknown
Launch date: April 22, 2020
Source: United States (US)
Launch site: AIR FORCE EASTERN TEST RANGE (AFETR)
aabbcc
Your satellite tracking list
Your tracking list is empty




NASA's NSSDC Master Catalog

Two Line Element Set (TLE):
1 45549U 20025U   20155.16667824  .04707628  00000-0  19122+0 0  9997
2 45549  52.9985 199.0708 0002880 122.6438   1.4816 15.19748240  7160
Source of the keplerian elements: AFSPC